Blair, NE

8:02 PM CDT on April 23, 2017 (GMT -0500)
Blair Municipal

Weather History for KBTA - February, 2013

Change the Weather History Date:

Sunday, February 24, 2013

  Actual Average (KOMA) Record (KOMA)
Temperature  
Mean Temperature 30 °F -  
Max Temperature 38 °F 41 °F 70 °F (1996)
Min Temperature 21 °F 21 °F -6 °F (1965)
Degree Days  
Heating Degree Days 36    
Moisture  
Dew Point 24 °F    
Average Humidity 79    
Maximum Humidity 91    
Minimum Humidity 61    
Precipitation  
Precipitation 0.00 in - - ()
Sea Level Pressure  
Sea Level Pressure 29.96 in    
Wind  
Wind Speed 7 mph (SSE)    
Max Wind Speed 13 mph    
Max Gust Speed -    
Visibility 7 miles    
Events      
Averages and records for this station are not official NWS values.
T = Trace of Precipitation, MM = Missing Value Source: NWS Daily Summary

Daily Weather History Graph

Daily Weather History Graph

Search for Another Location

Airport or City:

Trip Planner

Search our weather history database for the weather conditions in past years. The results will help you decide how hot, cold, wet, or windy it might be!

Date:

Astronomy

Feb. 24, 2013 Rise Set
Actual Time 7:06 AM CST 6:09 PM CST
Civil Twilight 6:38 AM CST 6:37 PM CST
Nautical Twilight 6:06 AM CST 7:09 PM CST
Astronomical Twilight 5:34 AM CST 7:41 PM CST
Moon 5:21 PM CST 6:04 AM CST
Length of Visible Light 11h 59m
Length of Day
11h 03m
Waxing Gibbous, 99% of the Moon is Illuminated
Feb 24
Waxing Gibbous
Feb 25
Full
Mar 4
Last Quarter
Mar 11
New
Mar 19
First Quarter

Hourly Weather History & Observations

Time (CST) Temp. Windchill Dew Point Humidity Pressure Visibility Wind Dir Wind Speed Gust Speed Precip Events Conditions
12:15 AM 26.4 °F 16.6 °F 22.5 °F 85% 29.86 in 7.0 mi South 10.4 mph - N/A   Clear
12:35 AM 25.3 °F 16.0 °F 21.7 °F 86% 29.87 in 7.0 mi South 9.2 mph - N/A   Clear
12:55 AM 24.6 °F 15.1 °F 21.2 °F 87% 29.87 in 7.0 mi South 9.2 mph - N/A   Clear
1:15 AM 25.3 °F 16.7 °F 22.3 °F 88% 29.88 in 7.0 mi South 8.1 mph - N/A   Clear
1:35 AM 24.4 °F 17.5 °F 21.2 °F 87% 29.88 in 7.0 mi South 5.8 mph - N/A   Clear
1:55 AM 25.2 °F 15.7 °F 22.3 °F 89% 29.89 in 7.0 mi South 9.2 mph - N/A   Clear
2:15 AM 23.2 °F 15.0 °F 20.3 °F 89% 29.89 in 5.0 mi South 6.9 mph - N/A   Clear
2:35 AM 23.9 °F 15.0 °F 21.2 °F 89% 29.89 in 7.0 mi South 8.1 mph - N/A   Clear
2:55 AM 22.1 °F 12.8 °F 19.9 °F 91% 29.89 in 5.0 mi South 8.1 mph - N/A   Clear
3:15 AM 23.0 °F 15.8 °F 20.3 °F 89% 29.89 in 5.0 mi South 5.8 mph - N/A   Clear
3:35 AM 23.5 °F 16.4 °F 20.8 °F 89% 29.89 in 5.0 mi South 5.8 mph - N/A   Clear
3:55 AM 23.4 °F 14.3 °F 20.8 °F 90% 29.89 in 5.0 mi South 8.1 mph - N/A   Clear
4:15 AM 23.9 °F 15.8 °F 21.0 °F 89% 29.89 in 5.0 mi South 6.9 mph - N/A   Clear
4:35 AM 23.9 °F 15.8 °F 20.8 °F 88% 29.89 in 7.0 mi South 6.9 mph - N/A   Clear
4:55 AM 23.0 °F 13.9 °F 20.1 °F 89% 29.90 in 5.0 mi South 8.1 mph - N/A   Clear
5:15 AM 22.8 °F 14.5 °F 20.1 °F 89% 29.90 in 5.0 mi South 6.9 mph - N/A   Clear
5:35 AM 21.7 °F 14.3 °F 19.2 °F 90% 29.90 in 5.0 mi South 5.8 mph - N/A   Clear
6:15 AM 22.1 °F 13.7 °F 19.8 °F 91% 29.91 in 5.0 mi South 6.9 mph - N/A   Mostly Cloudy
6:35 AM 24.1 °F 18.2 °F 20.8 °F 87% 29.91 in 5.0 mi South 4.6 mph - N/A   Overcast
6:55 AM 24.8 °F 19.1 °F 21.2 °F 86% 29.91 in 7.0 mi SSE 4.6 mph - N/A   Overcast
7:15 AM 25.5 °F 21.3 °F 21.4 °F 84% 29.92 in 5.0 mi SSE 3.5 mph - N/A   Overcast
7:35 AM 25.7 °F - 22.1 °F 86% 29.93 in 5.0 mi Calm Calm - N/A   Overcast
7:55 AM 26.2 °F 20.7 °F 22.1 °F 84% 29.94 in 5.0 mi SSE 4.6 mph - N/A   Overcast
8:15 AM 26.6 °F - 22.6 °F 85% 29.95 in 4.0 mi Calm Calm - N/A   Overcast
8:35 AM 26.6 °F 21.2 °F 22.5 °F 84% 29.95 in 5.0 mi SSE 4.6 mph - N/A   Haze
8:55 AM 27.3 °F 23.4 °F 22.8 °F 83% 29.95 in 5.0 mi SSE 3.5 mph - N/A   Overcast
9:15 AM 28.2 °F 22.0 °F 23.0 °F 81% 29.96 in 5.0 mi SSE 5.8 mph - N/A   Haze
9:35 AM 28.8 °F 21.7 °F 23.4 °F 80% 29.96 in 5.0 mi SSE 6.9 mph - N/A   Haze
9:55 AM 29.1 °F 22.1 °F 23.5 °F 80% 29.97 in 7.0 mi SSE 6.9 mph - N/A   Overcast
10:15 AM 29.7 °F 23.7 °F 23.7 °F 79% 29.98 in 7.0 mi SSE 5.8 mph - N/A   Overcast
10:35 AM 30.7 °F 24.1 °F 24.4 °F 77% 29.99 in 7.0 mi South 6.9 mph - N/A   Overcast
10:55 AM 31.5 °F 26.8 °F 24.4 °F 75% 29.99 in 7.0 mi South 4.6 mph - N/A   Overcast
11:15 AM 32.0 °F 27.5 °F 24.6 °F 74% 29.99 in 10.0 mi South 4.6 mph - N/A   Overcast
11:35 AM 32.2 °F - 24.8 °F 74% 29.99 in 10.0 mi Calm Calm - N/A   Overcast
11:55 AM 33.1 °F 30.0 °F 25.3 °F 73% 29.99 in 10.0 mi SSW 3.5 mph - N/A   Overcast
12:15 PM 33.8 °F - 25.0 °F 70% 29.99 in 10.0 mi Calm Calm - N/A   Overcast
12:35 PM 34.2 °F - 25.3 °F 70% 29.98 in 10.0 mi Calm Calm - N/A   Overcast
12:55 PM 35.1 °F 32.2 °F 25.7 °F 69% 29.98 in 10.0 mi SW 3.5 mph - N/A   Overcast
1:15 PM 35.2 °F - 25.5 °F 68% 29.98 in 10.0 mi Calm Calm - N/A   Overcast
1:35 PM 35.6 °F - 25.5 °F 67% 29.97 in 10.0 mi Calm Calm - N/A   Overcast
1:55 PM 36.1 °F - 25.7 °F 66% 29.96 in 10.0 mi Calm Calm - N/A   Overcast
2:15 PM 36.5 °F - 25.9 °F 65% 29.96 in 10.0 mi Calm Calm - N/A   Overcast
2:35 PM 37.2 °F - 25.5 °F 63% 29.96 in 10.0 mi Calm Calm - N/A   Scattered Clouds
2:55 PM 37.9 °F - 26.1 °F 62% 29.95 in 10.0 mi Calm Calm - N/A   Scattered Clouds
3:15 PM 38.3 °F 35.9 °F 26.1 °F 61% 29.95 in 10.0 mi NNW 3.5 mph - N/A   Clear
3:35 PM 38.7 °F 36.3 °F 26.2 °F 61% 29.95 in 10.0 mi NW 3.5 mph - N/A   Clear
3:55 PM 38.5 °F 35.0 °F 26.6 °F 62% 29.95 in 10.0 mi NW 4.6 mph - N/A   Clear
4:15 PM 38.3 °F 35.9 °F 26.6 °F 63% 29.96 in 10.0 mi NW 3.5 mph - N/A   Clear
4:35 PM 38.1 °F 32.9 °F 27.3 °F 65% 29.96 in 10.0 mi North 6.9 mph - N/A   Clear
4:55 PM 37.2 °F 31.9 °F 27.9 °F 69% 29.96 in 10.0 mi North 6.9 mph - N/A   Clear
5:15 PM 36.9 °F 32.2 °F 26.8 °F 67% 29.97 in 10.0 mi NNE 5.8 mph - N/A   Clear
5:35 PM 36.1 °F 31.4 °F 27.1 °F 70% 29.98 in 10.0 mi NE 5.8 mph - N/A   Clear
5:55 PM 36.0 °F 30.3 °F 27.3 °F 71% 29.97 in 10.0 mi North 6.9 mph - N/A   Scattered Clouds
6:15 PM 35.4 °F 30.5 °F 27.5 °F 73% 29.98 in 10.0 mi NNE 5.8 mph - N/A   Mostly Cloudy
6:35 PM 35.4 °F 29.7 °F 27.3 °F 72% 29.99 in 10.0 mi NE 6.9 mph - N/A   Overcast
6:55 PM 35.2 °F 30.3 °F 27.5 °F 73% 30.00 in 10.0 mi NNE 5.8 mph - N/A   Overcast
7:15 PM 34.7 °F 28.1 °F 27.5 °F 75% 30.00 in 10.0 mi NNE 8.1 mph - N/A   Overcast
7:35 PM 34.2 °F 28.2 °F 27.1 °F 75% 30.01 in 10.0 mi North 6.9 mph - N/A   Overcast
7:55 PM 34.0 °F 29.8 °F 27.5 °F 77% 30.02 in 7.0 mi North 4.6 mph - N/A   Overcast
8:15 PM 33.6 °F 26.2 °F 27.5 °F 78% 30.03 in 7.0 mi North 9.2 mph - N/A   Overcast
8:35 PM 32.9 °F 26.7 °F 27.9 °F 82% 30.03 in 7.0 mi North 6.9 mph - N/A   Overcast
8:55 PM 32.4 °F 24.0 °F 28.2 °F 85% 30.03 in 5.0 mi North 10.4 mph - N/A   Haze
9:15 PM 32.0 °F 24.2 °F 28.4 °F 87% 30.03 in 5.0 mi North 9.2 mph - N/A   Overcast
9:35 PM 31.6 °F 24.4 °F 27.9 °F 86% 30.04 in 4.0 mi North 8.1 mph - N/A   Overcast
9:55 PM 30.7 °F 22.6 °F 26.2 °F 83% 30.05 in 4.0 mi North 9.2 mph - N/A   Haze
10:15 PM 30.2 °F 21.9 °F 25.3 °F 82% 30.05 in 5.0 mi North 9.2 mph - N/A   Haze
10:35 PM 30.0 °F 21.1 °F 24.8 °F 81% 30.06 in 4.0 mi North 10.4 mph - N/A   Haze
10:55 PM 29.8 °F 21.5 °F 24.8 °F 81% 30.06 in 4.0 mi North 9.2 mph - N/A   Haze
11:15 PM 29.7 °F 21.3 °F 25.0 °F 83% 30.05 in 5.0 mi North 9.2 mph - N/A   Overcast
11:35 PM 29.1 °F 19.4 °F 25.0 °F 85% 30.05 in 4.0 mi North 11.5 mph - N/A   Overcast
11:55 PM 28.4 °F 18.0 °F 24.8 °F 86% 30.04 in 4.0 mi North 12.7 mph - N/A   Overcast